Location: Caltech
(34.1382°N, 118.1253°W)
Time: 22:45:25
(UTC-07:00)

JAS-1B - Visible Passes

Search period start: 31 July 2014 00:00
Search period end: 10 August 2014 00:00
Orbit: 912 x 1743 km, 99.0° (Epoch: 31 July)

Date Brightness Start Highest point End Pass type
(mag) Time Alt. Az. Time Alt. Az. Time Alt. Az.
31 Jul 8.4 03:00:11 10° NNE 03:08:51 49° E 03:12:30 30° SSE visible
31 Jul 8.6 04:51:03 10° N 04:58:53 34° WNW 05:04:45 14° WSW visible
01 Aug 7.9 03:19:05 10° NNE 03:28:02 67° E 03:31:41 35° S visible
01 Aug 9.0 05:10:42 10° N 05:17:33 25° WNW 05:23:42 10° WSW visible
02 Aug 9.7 01:51:17 10° ENE 01:55:11 14° E 01:58:37 10° ESE visible
02 Aug 7.7 03:38:07 10° NNE 03:47:08 88° ESE 03:50:52 36° SSW visible
02 Aug 9.2 05:30:37 10° NNW 05:36:09 19° NW 05:41:15 10° W visible
03 Aug 9.4 02:08:46 10° NE 02:14:41 20° E 02:17:48 16° ESE visible
03 Aug 7.7 03:57:17 10° N 04:06:07 70° WNW 04:10:02 32° SSW visible
04 Aug 9.0 02:26:59 10° NE 02:34:05 28° E 02:36:58 23° SE visible
04 Aug 8.0 04:16:34 10° N 04:25:01 52° WNW 04:29:13 27° SW visible
05 Aug 8.6 02:45:32 10° NNE 02:53:25 39° E 02:56:08 30° SE visible
05 Aug 8.3 04:35:58 10° N 04:43:49 39° WNW 04:48:23 20° WSW visible
06 Aug 8.1 03:04:19 10° NNE 03:12:40 54° E 03:15:18 38° SSE visible
06 Aug 8.7 04:55:32 10° N 05:02:32 29° WNW 05:07:33 14° WSW visible
07 Aug 7.7 03:23:16 10° NNE 03:31:49 74° ESE 03:34:28 44° S visible
07 Aug 9.0 05:15:19 10° NNW 05:21:10 21° WNW 05:26:26 10° WSW visible
08 Aug 9.5 01:54:55 10° NE 01:59:03 15° E 02:01:23 13° ESE visible
08 Aug 7.5 03:42:21 10° NNE 03:50:52 83° WNW 03:53:38 43° SSW visible
08 Aug 9.2 05:35:30 10° NNW 05:39:44 15° NW 05:43:39 10° W visible
09 Aug 9.1 02:12:38 10° NE 02:18:31 22° E 02:20:33 19° ESE visible
09 Aug 7.7 04:01:33 10° N 04:09:48 61° WNW 04:12:48 37° SW visible
